Location: Eldred Sherwood Park Lake Dam
(42.9416°N, 93.5655°W)
Time: 08:00:58
(UTC+00:00)

Explorer 7 - Pass Details

Date: 08 November 2024
Orbit: 455 x 597 km, 50.3° (Epoch: 09 December)

Event Time Altitude Azimuth Distance (km) Brightness Sun altitude
Exits shadow 10:31:04 26° 146° (SSE) 1,089 8.6 -27.2°
Maximum altitude 10:31:29 26° 135° (SE) 1,078 8.6 -27.1°
Drops below altitude 10° 10:34:59 10° 79° (ENE) 1,839 10.5 -26.4°
Sets 10:37:33 0° 67° (ENE) 2,766 11.5 -26.0°
